Corpus Christi, TX

5:40 PM CST on January 26, 2015 (GMT -0600)
Corpus Christi International | Change Station
CLOSE
Current Station
Airport
Location: Corpus Christi,
Elevation: 43 ft
Nearby Weather Stations

Elev 43 ft 27.77 °N, 97.51 °W | Updated 49 minutes ago

Mostly Cloudy
Mostly Cloudy
68 °F
Feels Like 68 °F
N
6
Wind Variable Wind from SSW

Today
High -- | Low -- °F
--% Chance of Precip.
Yesterday
High -- | Low -- °F
Precip. -- in
7:19 AM 6:05 PM
Waxing Crescent, 48% visible
Pressure 30.19 in
Visibility 10.0 miles
Clouds Few 9000 ft
Few 13000 ft
Mostly Cloudy 20000 ft
Mostly Cloudy 25000 ft
Dew Point 50 °F
Humidity 52%
Rainfall 0.00 in
Snow Depth Not available.
UV 0 out of 12
Pollen 7.40 out of 12
Air Quality Not available.
Flu Activity Not available.
METAR KCRP 262251Z 20005KT 10SM FEW090 FEW130 BKN200 BKN250 20/10 A3019 RMK AO2 SLP221 T02000100

More Conditions Fewer Conditions

Pressure 30.19 in
Visibility 10.0 miles
Clouds Few 9000 ft
Few 13000 ft
Mostly Cloudy 20000 ft
Mostly Cloudy 25000 ft
Dew Point 50 °F
Humidity 52%
Rainfall 0.00 in
Snow Depth Not available.
UV 0 out of 12
Pollen 7.40 out of 12
Air Quality Not available.
Flu Activity Not available.
METAR KCRP 262251Z 20005KT 10SM FEW090 FEW130 BKN200 BKN250 20/10 A3019 RMK AO2 SLP221 T02000100

More Conditions Fewer Conditions

10-Day Weather Forecast

Almanac

Astronomy

Jan. 26, 2015 Rise Set
Actual Time
Civil Twilight
Nautical Twilight
Astronomical Twilight
Moon
Length of Visible Light
Length of Day
Tomorrow will be .
, % of the Moon is Illuminated

Today's Extremes

State Highs State Lows

Community

WunderPhotos

Upload Photos

1,790,408 photos uploaded!

WunderBlogs® & News

Nearby

Air Quality

  Air Quality AQ Index Pollutant
Not available.

Snow Depth

Station Depth Elevation

Earthquake Activity

City Distance Mag. Time & Date
Minimum magnitude displayed is 2.5.

Coastal Water Temperatures

Place Temperature

Nearby Weather Stations